Simultaneous Nadir Overpasses (SNOs) Predictions

Prediction of SNOs between AQUA and NOAA-19 Satellite Orbit:

Table of predicted SNOs for the next 14.0 days since TLE Epoch: 12/25/2021
Index Date (AQUA) Time (AQUA) Lat,Lon (AQUA) SZA (AQUA ) Date (NOAA-19) Time (NOAA-19) Lat,Lon (NOAA-19) SZA (NOAA-19 ) Distance(km) Time Diff (sec)
1 12/26/2021 06:53:54 -78.16,-122.79 77.92 12/26/2021 06:53:11 -78.15,-122.77 77.92 1.58 43
2 12/26/2021 07:43:22 78.21, 44.63 102.14 12/26/2021 07:44:06 78.20, 44.78 102.11 3.48 44
3 12/28/2021 13:17:06 -78.17, 141.39 78.00 12/28/2021 13:17:14 -78.17, 141.41 78.00 0.49 8
4 12/30/2021 18:50:51 78.15,-121.98 101.86 12/30/2021 18:50:15 78.15,-121.89 101.86 2.22 36
5 12/30/2021 19:40:18 -78.19, 45.51 78.10 12/30/2021 19:41:17 -78.18, 45.56 78.13 1.28 59
6 01/02/2022 00:24:35 -78.13, -25.30 78.33 01/02/2022 00:23:22 -78.11, -25.28 78.33 2.26 73
7 01/02/2022 01:14:02 78.14, 142.29 101.69 01/02/2022 01:14:19 78.14, 142.14 101.69 3.42 17
8 01/04/2022 06:47:46 -78.13,-121.08 78.53 01/04/2022 06:47:25 -78.12,-121.17 78.53 2.21 21
9 01/04/2022 07:37:14 78.19, 46.29 101.54 01/04/2022 07:38:22 78.17, 46.37 101.50 2.93 68
10 01/06/2022 12:21:30 78.11, -24.44 101.21 01/06/2022 12:20:27 78.11, -24.38 101.23 1.18 63



Historial Predications of SNOs between AQUA and NOAA-19
